Location: Vihti�l�
(61.3833°N, 23.0667°E)
Time: 05:24:55
(UTC+00:00)

Okean-O - Pass Details

Date: 29 November 2020
Orbit: 639 x 640 km, 98.2° (Epoch: 22 January)

Event Time Altitude Azimuth Distance (km) Brightness Sun altitude
Rises 06:06:18 0° 18° (NNE) 2,964 5.9 -6.7°
Reaches altitude 10° 06:08:33 10° 22° (NNE) 2,050 5.1 -6.5°
Maximum altitude 06:12:59 60° 103° (ESE) 737 3.3 -6.0°
Drops below altitude 10° 06:17:22 10° 184° (S) 2,035 5.7 -5.6°
Sets 06:19:36 0° 188° (S) 2,940 6.4 -5.4°
